Home > Time Zones > World Clock > Weather > Iran > Gorgan > Past weeks

Flag for Iran Weather past 2 weeks in Gorgan, Iran

Now
86 °F

More clouds than sun.


Feels Like: 85 °F
Forecast: 71 / 87 °F
Wind: 5 mph from North

Location: Gorgan Airport

Current Time: Sep 1, 2015 at 5:29:36 PM

Latest Report: Sep 1, 2015 at 4:30 PM


Visibility: N/A

Pressure: 29.92 "Hg

Humidity: 40%

Dew point: 59 °F

Location of GorganLocation

Historic Weather in Gorgan — Graph

°F

Gorgan temperature yesterday

Maximum temperature yesterday: 90 °F (at 1:30 PM)
Minimum temperature yesterday: 75 °F (at 12:30 AM)
Average temperature yesterday: 81 °F

Past Weeks' High & Low Weather Summary

 TemperatureHumidityPressure
High100 °F (Aug 19, 3:30 PM)94% (Aug 24, 8:30 PM)30.12 "Hg (Aug 24, 8:30 PM)
Low66 °F (Aug 28, 2:30 AM)38% (Aug 23, 12:30 PM)29.68 "Hg (Aug 24, 3:30 PM)
Average81 °F72%29.92 "Hg
* Reported Aug 17 3:30 PM — Sep 1 3:30 PM, Gorgan, Weather by CustomWeather, © 2015

Note: Actual official high and low records may vary slightly from our data, if they occured in-between our weather recording intervals... More about our weather records

Advertising

Gorgan weather history for previous 24 hours

 ConditionsComfort  
Time TempWeatherWind HumidityBarometerVisibility
3:30 PM
Tue, Sep 1
88 °FPartly sunny.12 mph40%29.89 "HgN/A
2:30 PM88 °FPartly sunny.14 mph43%29.92 "HgN/A
1:30 PM84 °FBroken clouds.9 mph45%29.89 "HgN/A
12:30 PM86 °FBroken clouds.14 mph46%29.95 "HgN/A
11:30 AM86 °FBroken clouds.16 mph40%29.95 "HgN/A
10:30 AM84 °FPartly sunny.7 mph45%29.92 "HgN/A
9:30 AM82 °FPartly sunny.14 mph58%29.92 "HgN/A
8:30 AM79 °FSunny.5 mph61%29.89 "Hg10 mi
7:30 AM73 °FPassing clouds.12 mph83%29.89 "HgN/A
6:30 AM73 °FPartly cloudy.12 mph78%29.92 "HgN/A
5:30 AM75 °FPartly cloudy.12 mph78%29.89 "HgN/A
4:30 AM75 °FPartly cloudy.7 mph78%29.92 "HgN/A
3:30 AM75 °FPassing clouds.No wind83%29.92 "HgN/A
2:30 AM75 °FPassing clouds.No wind78%29.95 "HgN/A
1:30 AM77 °FPassing clouds.7 mph79%30.01 "HgN/A
12:30 AM77 °FPassing clouds.7 mph74%30.01 "HgN/A
12:00 AM75 °FPassing clouds.7 mph78%30.01 "HgN/A
11:30 PM
Mon, Aug 31
75 °FPassing clouds.7 mph74%29.98 "HgN/A
11:00 PM75 °FPassing clouds.9 mph74%29.98 "HgN/A
10:30 PM75 °FPassing clouds.7 mph74%30.01 "HgN/A
10:00 PM77 °FPassing clouds.9 mph69%30.01 "HgN/A
9:30 PM77 °FPassing clouds.7 mph69%30.01 "HgN/A
9:00 PM79 °FPassing clouds.7 mph65%30.01 "HgN/A
8:30 PM81 °FScattered clouds.7 mph66%29.98 "HgN/A
7:30 PM82 °FSunny.12 mph62%29.98 "Hg10 mi
6:30 PM84 °FPassing clouds.14 mph58%29.98 "Hg4 mi
5:30 PM88 °FPassing clouds.16 mph52%29.98 "Hg4 mi
Weather by CustomWeather, © 2015

See weather overviewHow to use our weather pages